Data supplied by UK-AIR on 30/6/2016
All Data GMT hour ending 
Status: R =Ratified P=Provisional,P*=As supplied
,,Fort William,,,,,,,,,,,,,,,,,,,,,,,
Date,time,"Nitric oxide",status,unit,"Nitrogen dioxide",status,unit,"Nitrogen oxides as nitrogen dioxide",status,unit,"Ozone",status,unit
 
01-01-2015,01:00,0.91552,R,ugm-3,2.09865,R,ugm-3,3.50243,R,ugm-3,75.70355,R,ugm-3
01-01-2015,02:00,0.91552,R,ugm-3,2.02151,R,ugm-3,3.42529,R,ugm-3,73.54155,R,ugm-3
01-01-2015,03:00,0.68664,R,ugm-3,1.80779,R,ugm-3,2.86062,R,ugm-3,72.69337,R,ugm-3
01-01-2015,04:00,0.53384,R,ugm-3,1.69161,R,ugm-3,2.51016,R,ugm-3,71.84520,R,ugm-3
01-01-2015,05:00,0.76335,R,ugm-3,1.51470,R,ugm-3,2.68515,R,ugm-3,72.89294,R,ugm-3
01-01-2015,06:00,0.95356,R,ugm-3,1.45685,R,ugm-3,2.91895,R,ugm-3,69.40047,R,ugm-3
01-01-2015,07:00,1.06769,R,ugm-3,1.69017,R,ugm-3,3.32727,R,ugm-3,69.40047,R,ugm-3
01-01-2015,08:00,0.91552,R,ugm-3,1.68969,R,ugm-3,3.09347,R,ugm-3,70.24864,R,ugm-3
01-01-2015,09:00,1.56349,R,ugm-3,2.91513,R,ugm-3,5.31245,R,ugm-3,67.65423,R,ugm-3
01-01-2015,10:00,1.52545,R,ugm-3,2.56466,R,ugm-3,4.90365,R,ugm-3,69.84950,R,ugm-3
01-01-2015,11:00,0.99160,R,ugm-3,2.21659,R,ugm-3,3.73703,R,ugm-3,71.84520,R,ugm-3
01-01-2015,12:00,1.22017,R,ugm-3,3.14989,R,ugm-3,5.02079,R,ugm-3,72.44391,R,ugm-3
01-01-2015,13:00,0.99160,R,ugm-3,2.79990,R,ugm-3,4.32034,R,ugm-3,72.89294,R,ugm-3
01-01-2015,14:00,1.10636,R,ugm-3,2.44896,R,ugm-3,4.14534,R,ugm-3,69.99918,R,ugm-3
01-01-2015,15:00,1.44936,R,ugm-3,3.55725,R,ugm-3,5.77958,R,ugm-3,68.25294,R,ugm-3
01-01-2015,16:00,1.10604,R,ugm-3,3.03275,R,ugm-3,4.72866,R,ugm-3,73.84090,R,ugm-3
01-01-2015,17:00,0.95356,R,ugm-3,3.09156,R,ugm-3,4.55366,R,ugm-3,72.24434,R,ugm-3
01-01-2015,18:00,1.10573,R,ugm-3,2.85823,R,ugm-3,4.55366,R,ugm-3,79.27918,R,ugm-3
01-01-2015,19:00,1.02965,R,ugm-3,2.50824,R,ugm-3,4.08701,R,ugm-3,78.97983,R,ugm-3
01-01-2015,20:00,1.14377,R,ugm-3,3.38321,R,ugm-3,5.13698,R,ugm-3,78.38112,R,ugm-3
01-01-2015,21:00,0.95356,R,ugm-3,2.91656,R,ugm-3,4.37867,R,ugm-3,78.08176,R,ugm-3
01-01-2015,22:00,2.13569,R,ugm-3,6.12430,R,ugm-3,9.39898,R,ugm-3,86.11446,R,ugm-3
01-01-2015,23:00,0.72468,R,ugm-3,0.69854,R,ugm-3,1.80970,R,ugm-3,87.01252,R,ugm-3
01-01-2015,24:00,0.83912,R,ugm-3,0.87306,R,ugm-3,2.15969,R,ugm-3,85.51575,R,ugm-3
02-01-2015,01:00,0.45776,R,ugm-3,0.38888,R,ugm-3,1.09076,R,ugm-3,86.48033,R,ugm-3
02-01-2015,02:00,0.80139,R,ugm-3,0.40688,R,ugm-3,1.63567,R,ugm-3,82.82155,R,ugm-3
02-01-2015,03:00,0.34332,R,ugm-3,0.17499,R,ugm-3,0.70141,R,ugm-3,83.17080,R,ugm-3
02-01-2015,04:00,0.53384,R,ugm-3,0.64260,R,ugm-3,1.46115,R,ugm-3,82.72177,R,ugm-3
02-01-2015,05:00,0.49580,R,ugm-3,0.46665,R,ugm-3,1.22687,R,ugm-3,81.62413,R,ugm-3
02-01-2015,06:00,0.41941,R,ugm-3,0.52546,R,ugm-3,1.16854,R,ugm-3,81.92349,R,ugm-3
02-01-2015,07:00,0.45776,R,ugm-3,0.40832,R,ugm-3,1.11021,R,ugm-3,82.87144,R,ugm-3
02-01-2015,08:00,0.91552,R,ugm-3,2.51111,R,ugm-3,3.91489,R,ugm-3,80.87574,R,ugm-3
02-01-2015,09:00,0.76272,R,ugm-3,0.75831,R,ugm-3,1.92780,R,ugm-3,79.72822,R,ugm-3
02-01-2015,10:00,0.80139,R,ugm-3,1.10829,R,ugm-3,2.33708,R,ugm-3,78.23144,R,ugm-3
02-01-2015,11:00,1.94485,R,ugm-3,4.43748,R,ugm-3,7.41954,R,ugm-3,78.33123,R,ugm-3
02-01-2015,12:00,1.94516,R,ugm-3,5.72268,R,ugm-3,8.70522,R,ugm-3,85.66542,R,ugm-3
02-01-2015,13:00,1.37297,R,ugm-3,2.80277,R,ugm-3,4.90795,R,ugm-3,83.76951,R,ugm-3
02-01-2015,14:00,1.33461,R,ugm-3,2.56944,R,ugm-3,4.61582,R,ugm-3,81.92349,R,ugm-3
02-01-2015,15:00,1.60185,R,ugm-3,3.44489,R,ugm-3,5.90102,R,ugm-3,81.32478,R,ugm-3
02-01-2015,16:00,2.05929,R,ugm-3,6.01529,R,ugm-3,9.17283,R,ugm-3,79.72822,R,ugm-3
02-01-2015,17:00,2.40230,R,ugm-3,8.29356,R,ugm-3,11.97703,R,ugm-3,75.08821,R,ugm-3
02-01-2015,18:00,2.44097,R,ugm-3,8.17642,R,ugm-3,11.91918,R,ugm-3,76.33553,R,ugm-3
02-01-2015,19:00,1.83041,R,ugm-3,6.77551,R,ugm-3,9.58210,R,ugm-3,71.99488,R,ugm-3
02-01-2015,20:00,5.07215,R,ugm-3,10.27682,R,ugm-3,18.05400,R,ugm-3,73.44176,R,ugm-3
02-01-2015,21:00,2.47870,R,ugm-3,6.19028,R,ugm-3,9.99090,R,ugm-3,83.32048,R,ugm-3
02-01-2015,22:00,1.18213,R,ugm-3,3.73798,R,ugm-3,5.55055,R,ugm-3,83.91919,R,ugm-3
02-01-2015,23:00,0.87685,R,ugm-3,2.33660,R,ugm-3,3.68108,R,ugm-3,85.21639,R,ugm-3
02-01-2015,24:00,1.22048,R,ugm-3,3.15276,R,ugm-3,5.02414,R,ugm-3,87.01252,R,ugm-3
03-01-2015,01:00,1.83187,R,ugm-3,4.51988,R,ugm-3,7.32870,R,ugm-3,88.80865,R,ugm-3
03-01-2015,02:00,0.81407,R,ugm-3,2.02598,R,ugm-3,3.27420,R,ugm-3,83.71962,R,ugm-3
03-01-2015,03:00,0.87748,R,ugm-3,1.51996,R,ugm-3,2.86540,R,ugm-3,82.22284,R,ugm-3
03-01-2015,04:00,0.91645,R,ugm-3,1.40138,R,ugm-3,2.80659,R,ugm-3,82.82155,R,ugm-3
03-01-2015,05:00,1.22142,R,ugm-3,2.10327,R,ugm-3,3.97609,R,ugm-3,80.22714,R,ugm-3
03-01-2015,06:00,1.52670,R,ugm-3,3.44776,R,ugm-3,5.78866,R,ugm-3,79.12951,R,ugm-3
03-01-2015,07:00,3.66426,R,ugm-3,11.57349,R,ugm-3,17.19194,R,ugm-3,68.20305,R,ugm-3
03-01-2015,08:00,7.93844,R,ugm-3,17.00643,R,ugm-3,29.17853,R,ugm-3,31.78152,R,ugm-3
03-01-2015,09:00,9.65629,R,ugm-3,41.85602,R,ugm-3,56.66212,R,ugm-3,21.70324,R,ugm-3
03-01-2015,10:00,25.38100,R,ugm-3,54.93465,R,ugm-3,93.85163,R,ugm-3,11.42538,R,ugm-3
03-01-2015,11:00,58.20526,R,ugm-3,60.03863,R,ugm-3,149.28545,R,ugm-3,6.88517,R,ugm-3
03-01-2015,12:00,63.85396,R,ugm-3,67.69198,R,ugm-3,165.60003,R,ugm-3,8.93076,R,ugm-3
03-01-2015,13:00,63.43425,R,ugm-3,71.90283,R,ugm-3,169.16732,R,ugm-3,20.65550,R,ugm-3
03-01-2015,14:00,22.48071,R,ugm-3,48.03770,R,ugm-3,82.50764,R,ugm-3,53.68433,R,ugm-3
03-01-2015,15:00,5.30539,R,ugm-3,18.47140,R,ugm-3,26.60622,R,ugm-3,66.25724,R,ugm-3
03-01-2015,16:00,3.96922,R,ugm-3,17.59643,R,ugm-3,23.68249,R,ugm-3,76.13596,R,ugm-3
03-01-2015,17:00,4.00726,R,ugm-3,13.67868,R,ugm-3,19.82306,R,ugm-3,58.37423,R,ugm-3
03-01-2015,18:00,5.45756,R,ugm-3,17.82880,R,ugm-3,26.19695,R,ugm-3,54.48261,R,ugm-3
03-01-2015,19:00,9.58020,R,ugm-3,42.61624,R,ugm-3,57.30567,R,ugm-3,31.38238,R,ugm-3
03-01-2015,20:00,9.57989,R,ugm-3,43.43431,R,ugm-3,58.12327,R,ugm-3,29.23701,R,ugm-3
03-01-2015,21:00,10.91606,R,ugm-3,42.67266,R,ugm-3,59.41038,R,ugm-3,18.21076,R,ugm-3
03-01-2015,22:00,9.15986,R,ugm-3,31.21439,R,ugm-3,45.25931,R,ugm-3,57.77552,R,ugm-3
03-01-2015,23:00,2.09952,R,ugm-3,8.94333,R,ugm-3,12.16254,R,ugm-3,58.67358,R,ugm-3
03-01-2015,24:00,1.52670,R,ugm-3,4.85106,R,ugm-3,7.19196,R,ugm-3,65.85810,R,ugm-3
04-01-2015,01:00,1.16997,R,ugm-3,2.65391,R,ugm-3,4.44784,R,ugm-3,67.32161,R,ugm-3
04-01-2015,02:00,1.22142,R,ugm-3,3.21874,R,ugm-3,5.09155,R,ugm-3,70.04907,R,ugm-3
04-01-2015,03:00,0.80139,R,ugm-3,1.17045,R,ugm-3,2.39923,R,ugm-3,72.09466,R,ugm-3
04-01-2015,04:00,0.83975,R,ugm-3,3.16041,R,ugm-3,4.44800,R,ugm-3,67.25509,R,ugm-3
04-01-2015,05:00,3.28227,R,ugm-3,5.85273,R,ugm-3,10.88547,R,ugm-3,65.30928,R,ugm-3
04-01-2015,06:00,1.64145,R,ugm-3,2.45756,R,ugm-3,4.97441,R,ugm-3,71.04692,R,ugm-3
04-01-2015,07:00,1.33586,R,ugm-3,2.45804,R,ugm-3,4.50633,R,ugm-3,73.49165,R,ugm-3
04-01-2015,08:00,0.64891,R,ugm-3,2.10662,R,ugm-3,3.10160,R,ugm-3,71.59574,R,ugm-3
04-01-2015,09:00,0.80170,R,ugm-3,3.39373,R,ugm-3,4.62299,R,ugm-3,65.75832,R,ugm-3
04-01-2015,10:00,1.90837,R,ugm-3,8.25148,R,ugm-3,11.17761,R,ugm-3,64.26154,R,ugm-3
04-01-2015,11:00,2.09921,R,ugm-3,8.83718,R,ugm-3,12.05592,R,ugm-3,62.76477,R,ugm-3
04-01-2015,12:00,2.40448,R,ugm-3,8.48624,R,ugm-3,12.17306,R,ugm-3,65.35918,R,ugm-3
04-01-2015,13:00,2.63367,R,ugm-3,7.25650,R,ugm-3,11.29475,R,ugm-3,66.05767,R,ugm-3
04-01-2015,14:00,1.98508,R,ugm-3,4.56418,R,ugm-3,7.60793,R,ugm-3,67.20520,R,ugm-3
04-01-2015,15:00,1.75558,R,ugm-3,3.74563,R,ugm-3,6.43748,R,ugm-3,65.20950,R,ugm-3
04-01-2015,16:00,1.90868,R,ugm-3,5.73415,R,ugm-3,8.66076,R,ugm-3,67.15531,R,ugm-3
04-01-2015,17:00,1.87033,R,ugm-3,6.43748,R,ugm-3,9.30527,R,ugm-3,66.45681,R,ugm-3
04-01-2015,18:00,1.75558,R,ugm-3,5.79344,R,ugm-3,8.48528,R,ugm-3,67.40477,R,ugm-3
04-01-2015,19:00,10.34355,R,ugm-3,20.65835,R,ugm-3,36.51823,R,ugm-3,65.25939,R,ugm-3
04-01-2015,20:00,2.59532,R,ugm-3,6.43748,R,ugm-3,10.41691,R,ugm-3,71.54585,R,ugm-3
04-01-2015,21:00,0.76335,R,ugm-3,3.10208,R,ugm-3,4.27253,R,ugm-3,69.40047,R,ugm-3
04-01-2015,22:00,0.91552,R,ugm-3,2.98541,R,ugm-3,4.38919,R,ugm-3,68.70197,R,ugm-3
04-01-2015,23:00,0.95419,R,ugm-3,4.21372,R,ugm-3,5.67678,R,ugm-3,67.40477,R,ugm-3
04-01-2015,24:00,0.72531,R,ugm-3,1.93115,R,ugm-3,3.04327,R,ugm-3,66.65638,R,ugm-3
05-01-2015,01:00,0.66190,R,ugm-3,2.02853,R,ugm-3,3.04343,R,ugm-3,65.85810,R,ugm-3
05-01-2015,02:00,0.66190,R,ugm-3,1.63774,R,ugm-3,2.65264,R,ugm-3,63.41337,R,ugm-3
05-01-2015,03:00,0.72531,R,ugm-3,1.75568,R,ugm-3,2.86779,R,ugm-3,66.25724,R,ugm-3
05-01-2015,04:00,0.53509,R,ugm-3,1.81305,R,ugm-3,2.63351,R,ugm-3,62.11616,R,ugm-3
05-01-2015,05:00,0.68757,R,ugm-3,2.51589,R,ugm-3,3.57016,R,ugm-3,57.92519,R,ugm-3
05-01-2015,06:00,3.47623,R,ugm-3,5.37938,R,ugm-3,10.70952,R,ugm-3,52.63659,R,ugm-3
05-01-2015,07:00,6.87543,R,ugm-3,10.81901,R,ugm-3,21.36119,R,ugm-3,36.52131,R,ugm-3
05-01-2015,08:00,8.55648,R,ugm-3,22.98825,R,ugm-3,36.10800,R,ugm-3,45.25250,R,ugm-3
05-01-2015,09:00,4.27855,R,ugm-3,13.04468,R,ugm-3,19.60504,R,ugm-3,49.29379,R,ugm-3
05-01-2015,10:00,4.43103,R,ugm-3,12.75255,R,ugm-3,19.54671,R,ugm-3,47.29809,R,ugm-3
05-01-2015,11:00,5.84422,R,ugm-3,13.86276,R,ugm-3,22.82378,R,ugm-3,50.69078,R,ugm-3
05-01-2015,12:00,3.66675,R,ugm-3,11.34925,R,ugm-3,16.97153,R,ugm-3,53.13551,R,ugm-3
05-01-2015,13:00,4.85106,R,ugm-3,9.24024,R,ugm-3,16.67843,R,ugm-3,52.28734,R,ugm-3
05-01-2015,14:00,3.81954,R,ugm-3,10.70522,R,ugm-3,16.56177,R,ugm-3,54.93164,R,ugm-3
05-01-2015,15:00,4.01069,R,ugm-3,12.16828,R,ugm-3,18.31793,R,ugm-3,55.43057,R,ugm-3
05-01-2015,16:00,4.54579,R,ugm-3,12.22566,R,ugm-3,19.19576,R,ugm-3,55.48046,R,ugm-3
05-01-2015,17:00,3.74377,R,ugm-3,13.74801,R,ugm-3,19.48838,R,ugm-3,52.83616,R,ugm-3
05-01-2015,18:00,5.08025,R,ugm-3,16.49723,R,ugm-3,24.28684,R,ugm-3,51.43917,R,ugm-3
05-01-2015,19:00,12.71997,R,ugm-3,19.82354,R,ugm-3,39.32722,R,ugm-3,50.49121,R,ugm-3
05-01-2015,20:00,6.07310,R,ugm-3,14.85773,R,ugm-3,24.16970,R,ugm-3,56.02928,R,ugm-3
05-01-2015,21:00,2.78834,R,ugm-3,7.25316,R,ugm-3,11.52855,R,ugm-3,70.39832,R,ugm-3
05-01-2015,22:00,1.83353,R,ugm-3,3.91871,R,ugm-3,6.73009,R,ugm-3,68.85165,R,ugm-3
05-01-2015,23:00,1.60434,R,ugm-3,3.56777,R,ugm-3,6.02772,R,ugm-3,71.99488,R,ugm-3
05-01-2015,24:00,1.48959,R,ugm-3,3.27563,R,ugm-3,5.55964,R,ugm-3,70.24864,R,ugm-3
06-01-2015,01:00,1.88592,R,ugm-3,3.35580,R,ugm-3,6.24750,R,ugm-3,68.65208,R,ugm-3
06-01-2015,02:00,2.03892,R,ugm-3,2.49645,R,ugm-3,5.62275,R,ugm-3,72.69337,R,ugm-3
06-01-2015,03:00,1.45279,R,ugm-3,1.69591,R,ugm-3,3.92349,R,ugm-3,80.17725,R,ugm-3
06-01-2015,04:00,0.91770,R,ugm-3,1.34592,R,ugm-3,2.75304,R,ugm-3,78.68047,R,ugm-3
06-01-2015,05:00,0.38230,R,ugm-3,0.93665,R,ugm-3,1.52283,R,ugm-3,88.65897,R,ugm-3
06-01-2015,06:00,1.26164,R,ugm-3,1.40378,R,ugm-3,3.33827,R,ugm-3,85.36607,R,ugm-3
06-01-2015,07:00,2.56133,R,ugm-3,4.74109,R,ugm-3,8.66841,R,ugm-3,73.79101,R,ugm-3
06-01-2015,08:00,5.23741,R,ugm-3,16.33466,R,ugm-3,24.36525,R,ugm-3,60.41982,R,ugm-3
06-01-2015,09:00,4.81676,R,ugm-3,17.15560,R,ugm-3,24.54120,R,ugm-3,64.66068,R,ugm-3
06-01-2015,10:00,4.96987,R,ugm-3,25.35497,R,ugm-3,32.97533,R,ugm-3,60.96864,R,ugm-3
06-01-2015,11:00,3.97608,R,ugm-3,12.47046,R,ugm-3,18.56703,R,ugm-3,64.21165,R,ugm-3
06-01-2015,12:00,3.47903,R,ugm-3,12.82236,R,ugm-3,18.15680,R,ugm-3,74.63918,R,ugm-3
06-01-2015,13:00,2.48493,R,ugm-3,7.61127,R,ugm-3,11.42145,R,ugm-3,73.99058,R,ugm-3
06-01-2015,14:00,2.10264,R,ugm-3,7.31866,R,ugm-3,10.54266,R,ugm-3,69.74972,R,ugm-3
06-01-2015,15:00,2.67608,R,ugm-3,9.13410,R,ugm-3,13.23737,R,ugm-3,72.84305,R,ugm-3
06-01-2015,16:00,4.16723,R,ugm-3,12.70426,R,ugm-3,19.09392,R,ugm-3,65.90799,R,ugm-3
06-01-2015,17:00,2.75248,R,ugm-3,11.59358,R,ugm-3,15.81398,R,ugm-3,64.96004,R,ugm-3
06-01-2015,18:00,2.59969,R,ugm-3,10.59812,R,ugm-3,14.58425,R,ugm-3,63.71272,R,ugm-3
06-01-2015,19:00,2.52329,R,ugm-3,10.65645,R,ugm-3,14.52544,R,ugm-3,70.19875,R,ugm-3
06-01-2015,20:00,1.64394,R,ugm-3,5.56155,R,ugm-3,8.08223,R,ugm-3,68.85165,R,ugm-3
06-01-2015,21:00,2.37018,R,ugm-3,6.67415,R,ugm-3,10.30838,R,ugm-3,71.19660,R,ugm-3
06-01-2015,22:00,1.07081,R,ugm-3,4.27396,R,ugm-3,5.91584,R,ugm-3,71.39617,R,ugm-3
06-01-2015,23:00,0.95606,R,ugm-3,2.75161,R,ugm-3,4.21754,R,ugm-3,68.90154,R,ugm-3
06-01-2015,24:00,0.87966,R,ugm-3,2.34090,R,ugm-3,3.68969,R,ugm-3,70.59789,R,ugm-3
07-01-2015,01:00,0.96874,R,ugm-3,1.48474,R,ugm-3,2.97011,R,ugm-3,71.57911,R,ugm-3
07-01-2015,02:00,0.68820,R,ugm-3,1.05522,R,ugm-3,2.11044,R,ugm-3,69.99918,R,ugm-3
07-01-2015,03:00,0.61149,R,ugm-3,1.11403,R,ugm-3,2.05163,R,ugm-3,67.05552,R,ugm-3
07-01-2015,04:00,0.42034,R,ugm-3,1.05570,R,ugm-3,1.70021,R,ugm-3,65.95789,R,ugm-3
07-01-2015,05:00,0.61149,R,ugm-3,1.40712,R,ugm-3,2.34473,R,ugm-3,67.35488,R,ugm-3
07-01-2015,06:00,0.61118,R,ugm-3,1.40760,R,ugm-3,2.34473,R,ugm-3,64.51100,R,ugm-3
07-01-2015,07:00,1.79674,R,ugm-3,4.63064,R,ugm-3,7.38560,R,ugm-3,63.46326,R,ugm-3
07-01-2015,08:00,2.71444,R,ugm-3,6.03728,R,ugm-3,10.19936,R,ugm-3,63.36348,R,ugm-3
07-01-2015,09:00,2.29379,R,ugm-3,7.97178,R,ugm-3,11.48887,R,ugm-3,61.96649,R,ugm-3
07-01-2015,10:00,1.68198,R,ugm-3,7.03465,R,ugm-3,9.61366,R,ugm-3,58.92304,R,ugm-3
07-01-2015,11:00,4.24332,R,ugm-3,10.43460,R,ugm-3,16.94093,R,ugm-3,61.76692,R,ugm-3
07-01-2015,12:00,4.16692,R,ugm-3,8.08940,R,ugm-3,14.47858,R,ugm-3,61.56735,R,ugm-3
07-01-2015,13:00,3.70854,R,ugm-3,9.78865,R,ugm-3,15.47499,R,ugm-3,62.81466,R,ugm-3
07-01-2015,14:00,3.13478,R,ugm-3,9.43723,R,ugm-3,14.24382,R,ugm-3,62.21595,R,ugm-3
07-01-2015,15:00,3.47903,R,ugm-3,7.97178,R,ugm-3,13.30622,R,ugm-3,63.76262,R,ugm-3
07-01-2015,16:00,2.75279,R,ugm-3,7.03370,R,ugm-3,11.25458,R,ugm-3,69.64993,R,ugm-3
07-01-2015,17:00,1.83478,R,ugm-3,5.27611,R,ugm-3,8.08940,R,ugm-3,73.74112,R,ugm-3
07-01-2015,18:00,3.09673,R,ugm-3,8.96819,R,ugm-3,13.71645,R,ugm-3,79.62843,R,ugm-3
07-01-2015,19:00,2.44689,R,ugm-3,8.03059,R,ugm-3,11.78243,R,ugm-3,78.33123,R,ugm-3
07-01-2015,20:00,5.46692,R,ugm-3,11.13697,R,ugm-3,19.51945,R,ugm-3,81.82370,R,ugm-3
07-01-2015,21:00,1.49084,R,ugm-3,3.75185,R,ugm-3,6.03776,R,ugm-3,82.72177,R,ugm-3
07-01-2015,22:00,0.99410,R,ugm-3,4.10279,R,ugm-3,5.62705,R,ugm-3,79.27918,R,ugm-3
07-01-2015,23:00,1.18556,R,ugm-3,2.46139,R,ugm-3,4.27922,R,ugm-3,76.13596,R,ugm-3
07-01-2015,24:00,0.99410,R,ugm-3,2.16878,R,ugm-3,3.69304,R,ugm-3,75.58714,R,ugm-3
08-01-2015,01:00,0.91801,R,ugm-3,0.93904,R,ugm-3,2.34664,R,ugm-3,72.90957,R,ugm-3
08-01-2015,02:00,0.56129,R,ugm-3,0.23460,R,ugm-3,1.09523,R,ugm-3,74.98843,R,ugm-3
08-01-2015,03:00,0.45901,R,ugm-3,0.76309,R,ugm-3,1.46689,R,ugm-3,78.33123,R,ugm-3
08-01-2015,04:00,0.49736,R,ugm-3,0.41071,R,ugm-3,1.17332,R,ugm-3,81.97338,R,ugm-3
08-01-2015,05:00,0.61242,R,ugm-3,0.76213,R,ugm-3,1.70117,R,ugm-3,79.12951,R,ugm-3
08-01-2015,06:00,1.60715,R,ugm-3,3.22639,R,ugm-3,5.69064,R,ugm-3,76.68477,R,ugm-3
08-01-2015,07:00,2.21926,R,ugm-3,4.69280,R,ugm-3,8.09561,R,ugm-3,73.44176,R,ugm-3
08-01-2015,08:00,2.60187,R,ugm-3,6.86348,R,ugm-3,10.85296,R,ugm-3,77.68262,R,ugm-3
08-01-2015,09:00,1.37733,R,ugm-3,4.98684,R,ugm-3,7.09872,R,ugm-3,78.58069,R,ugm-3
08-01-2015,10:00,1.79798,R,ugm-3,7.86181,R,ugm-3,10.61868,R,ugm-3,76.73467,R,ugm-3
08-01-2015,11:00,2.71662,R,ugm-3,7.74323,R,ugm-3,11.90866,R,ugm-3,74.38972,R,ugm-3
08-01-2015,12:00,3.00974,R,ugm-3,9.77734,R,ugm-3,14.39220,R,ugm-3,52.23745,R,ugm-3
08-01-2015,13:00,3.57102,R,ugm-3,10.79479,R,ugm-3,16.27028,R,ugm-3,69.50025,R,ugm-3
08-01-2015,14:00,2.86941,R,ugm-3,6.98158,R,ugm-3,11.38129,R,ugm-3,68.35273,R,ugm-3
08-01-2015,15:00,3.09892,R,ugm-3,8.68323,R,ugm-3,13.43483,R,ugm-3,67.45466,R,ugm-3
08-01-2015,16:00,2.25699,R,ugm-3,8.15538,R,ugm-3,11.61605,R,ugm-3,65.60864,R,ugm-3
08-01-2015,17:00,2.02749,R,ugm-3,7.45110,R,ugm-3,10.55987,R,ugm-3,68.50240,R,ugm-3
08-01-2015,18:00,1.91305,R,ugm-3,6.45278,R,ugm-3,9.38607,R,ugm-3,69.15101,R,ugm-3
08-01-2015,19:00,2.25730,R,ugm-3,8.33085,R,ugm-3,11.79200,R,ugm-3,70.34843,R,ugm-3
08-01-2015,20:00,2.44876,R,ugm-3,5.69017,R,ugm-3,9.44488,R,ugm-3,72.69337,R,ugm-3
08-01-2015,21:00,1.60715,R,ugm-3,3.40234,R,ugm-3,5.86659,R,ugm-3,71.49595,R,ugm-3
08-01-2015,22:00,2.67827,R,ugm-3,2.75735,R,ugm-3,6.86396,R,ugm-3,76.48520,R,ugm-3
08-01-2015,23:00,0.49736,R,ugm-3,1.17332,R,ugm-3,1.93593,R,ugm-3,77.03402,R,ugm-3
08-01-2015,24:00,0.42065,R,ugm-3,0.64595,R,ugm-3,1.29094,R,ugm-3,89.30758,R,ugm-3
09-01-2015,01:00,0.45901,R,ugm-3,0.54889,R,ugm-3,1.25269,R,ugm-3,86.08119,R,ugm-3
09-01-2015,02:00,0.51056,R,ugm-3,0.15619,R,ugm-3,0.93904,R,ugm-3,86.66327,R,ugm-3
09-01-2015,03:00,0.34488,R,ugm-3,0.05833,R,ugm-3,0.58714,R,ugm-3,87.21209,R,ugm-3
09-01-2015,04:00,0.34457,R,ugm-3,0.05833,R,ugm-3,0.58666,R,ugm-3,89.05811,R,ugm-3
09-01-2015,05:00,0.30652,R,ugm-3,0.05881,R,ugm-3,0.52881,R,ugm-3,88.85854,R,ugm-3
09-01-2015,06:00,0.38292,R,ugm-3,0.05833,R,ugm-3,0.64547,R,ugm-3,87.21209,R,ugm-3
09-01-2015,07:00,0.38323,R,ugm-3,0.05833,R,ugm-3,0.64595,R,ugm-3,88.25983,R,ugm-3
09-01-2015,08:00,0.88091,R,ugm-3,1.11499,R,ugm-3,2.46569,R,ugm-3,87.26198,R,ugm-3
09-01-2015,09:00,1.22547,R,ugm-3,2.58331,R,ugm-3,4.46234,R,ugm-3,86.91274,R,ugm-3
09-01-2015,10:00,1.14876,R,ugm-3,2.46617,R,ugm-3,4.22758,R,ugm-3,82.67187,R,ugm-3
09-01-2015,11:00,2.56538,R,ugm-3,8.16159,R,ugm-3,12.09513,R,ugm-3,74.53940,R,ugm-3
09-01-2015,12:00,3.79086,R,ugm-3,13.56297,R,ugm-3,19.37554,R,ugm-3,66.45681,R,ugm-3
09-01-2015,13:00,3.33123,R,ugm-3,13.79821,R,ugm-3,18.90602,R,ugm-3,69.79961,R,ugm-3
09-01-2015,14:00,3.56135,R,ugm-3,15.79343,R,ugm-3,21.25409,R,ugm-3,65.70842,R,ugm-3
09-01-2015,15:00,3.52331,R,ugm-3,10.86157,R,ugm-3,16.26390,R,ugm-3,71.19660,R,ugm-3
09-01-2015,16:00,2.48899,R,ugm-3,9.74658,R,ugm-3,13.56297,R,ugm-3,68.20305,R,ugm-3
09-01-2015,17:00,3.59940,R,ugm-3,10.97966,R,ugm-3,16.49866,R,ugm-3,66.90584,R,ugm-3
09-01-2015,18:00,2.68045,R,ugm-3,10.56800,R,ugm-3,14.67796,R,ugm-3,61.16821,R,ugm-3
09-01-2015,19:00,3.59940,R,ugm-3,9.68825,R,ugm-3,15.20724,R,ugm-3,63.26369,R,ugm-3
09-01-2015,20:00,1.76150,R,ugm-3,4.28639,R,ugm-3,6.98732,R,ugm-3,66.45681,R,ugm-3
09-01-2015,21:00,1.41693,R,ugm-3,2.64212,R,ugm-3,4.81472,R,ugm-3,75.83660,R,ugm-3
09-01-2015,22:00,1.11072,R,ugm-3,1.81974,R,ugm-3,3.52283,R,ugm-3,69.69982,R,ugm-3
09-01-2015,23:00,1.18681,R,ugm-3,2.34903,R,ugm-3,4.16877,R,ugm-3,69.35058,R,ugm-3
09-01-2015,24:00,1.22516,R,ugm-3,1.58498,R,ugm-3,3.46354,R,ugm-3,72.59359,R,ugm-3
10-01-2015,01:00,0.91968,R,ugm-3,0.93840,R,ugm-3,2.34855,R,ugm-3,70.18212,R,ugm-3
10-01-2015,02:00,0.97040,R,ugm-3,0.85999,R,ugm-3,2.34791,R,ugm-3,74.78886,R,ugm-3
10-01-2015,03:00,0.26848,R,ugm-3,0.11666,R,ugm-3,0.52833,R,ugm-3,87.56134,R,ugm-3
10-01-2015,04:00,0.38355,R,ugm-3,0.35142,R,ugm-3,0.93952,R,ugm-3,91.60263,R,ugm-3
10-01-2015,05:00,0.34519,R,ugm-3,0.35142,R,ugm-3,0.88071,R,ugm-3,87.21209,R,ugm-3
10-01-2015,06:00,0.34519,R,ugm-3,0.29213,R,ugm-3,0.82142,R,ugm-3,88.45940,R,ugm-3
10-01-2015,07:00,0.57532,R,ugm-3,0.11571,R,ugm-3,0.99785,R,ugm-3,86.21424,R,ugm-3
10-01-2015,08:00,0.38355,R,ugm-3,0.11666,R,ugm-3,0.70476,R,ugm-3,89.20779,R,ugm-3
10-01-2015,09:00,0.57501,R,ugm-3,0.70380,R,ugm-3,1.58546,R,ugm-3,83.52005,R,ugm-3
10-01-2015,10:00,0.65140,R,ugm-3,0.70380,R,ugm-3,1.70260,R,ugm-3,79.87789,R,ugm-3
10-01-2015,11:00,1.07268,R,ugm-3,1.17332,R,ugm-3,2.81807,R,ugm-3,81.67402,R,ugm-3
10-01-2015,12:00,0.95762,R,ugm-3,1.34975,R,ugm-3,2.81807,R,ugm-3,79.72822,R,ugm-3
10-01-2015,13:00,1.26445,R,ugm-3,2.46473,R,ugm-3,4.40353,R,ugm-3,82.92134,R,ugm-3
10-01-2015,14:00,1.95483,R,ugm-3,3.75472,R,ugm-3,6.75208,R,ugm-3,81.62413,R,ugm-3
10-01-2015,15:00,1.72470,R,ugm-3,3.34401,R,ugm-3,5.98852,R,ugm-3,83.96908,R,ugm-3
10-01-2015,16:00,1.76306,R,ugm-3,3.28568,R,ugm-3,5.98899,R,ugm-3,82.72177,R,ugm-3
10-01-2015,17:00,1.53262,R,ugm-3,4.28496,R,ugm-3,6.63494,R,ugm-3,82.52220,R,ugm-3
10-01-2015,18:00,1.41787,R,ugm-3,3.40377,R,ugm-3,5.57781,R,ugm-3,81.07531,R,ugm-3
10-01-2015,19:00,1.49458,R,ugm-3,3.81448,R,ugm-3,6.10613,R,ugm-3,81.37467,R,ugm-3
10-01-2015,20:00,1.49458,R,ugm-3,3.99043,R,ugm-3,6.28208,R,ugm-3,80.12736,R,ugm-3
10-01-2015,21:00,0.99628,R,ugm-3,3.11116,R,ugm-3,4.63877,R,ugm-3,79.32908,R,ugm-3
10-01-2015,22:00,1.18774,R,ugm-3,3.69782,R,ugm-3,5.51900,R,ugm-3,80.02757,R,ugm-3
10-01-2015,23:00,0.76647,R,ugm-3,1.64332,R,ugm-3,2.81855,R,ugm-3,80.07746,R,ugm-3
10-01-2015,24:00,0.68945,R,ugm-3,1.17380,R,ugm-3,2.23093,R,ugm-3,82.82155,R,ugm-3
11-01-2015,01:00,0.40911,R,ugm-3,0.78349,R,ugm-3,1.41079,R,ugm-3,85.54901,R,ugm-3
11-01-2015,02:00,0.61367,R,ugm-3,0.46920,R,ugm-3,1.41015,R,ugm-3,84.26843,R,ugm-3
11-01-2015,03:00,0.46025,R,ugm-3,0.35238,R,ugm-3,1.05809,R,ugm-3,82.47230,R,ugm-3
11-01-2015,04:00,0.46025,R,ugm-3,0.41071,R,ugm-3,1.11642,R,ugm-3,82.07316,R,ugm-3
11-01-2015,05:00,0.42190,R,ugm-3,0.23476,R,ugm-3,0.88166,R,ugm-3,85.96478,R,ugm-3
11-01-2015,06:00,0.99722,R,ugm-3,1.40856,R,ugm-3,2.93760,R,ugm-3,87.46155,R,ugm-3
11-01-2015,07:00,0.84380,R,ugm-3,1.52665,R,ugm-3,2.82046,R,ugm-3,79.62843,R,ugm-3
11-01-2015,08:00,0.80544,R,ugm-3,1.82022,R,ugm-3,3.05522,R,ugm-3,79.57854,R,ugm-3
11-01-2015,09:00,1.07393,R,ugm-3,2.76069,R,ugm-3,4.40736,R,ugm-3,84.26843,R,ugm-3
11-01-2015,10:00,0.88215,R,ugm-3,3.11355,R,ugm-3,4.46617,R,ugm-3,84.86714,R,ugm-3
11-01-2015,11:00,1.15063,R,ugm-3,3.75902,R,ugm-3,5.52330,R,ugm-3,86.81295,R,ugm-3
11-01-2015,12:00,1.26570,R,ugm-3,2.99498,R,ugm-3,4.93568,R,ugm-3,82.37252,R,ugm-3
11-01-2015,13:00,1.95608,R,ugm-3,6.52019,R,ugm-3,9.51947,R,ugm-3,83.71962,R,ugm-3
11-01-2015,14:00,1.76431,R,ugm-3,5.81543,R,ugm-3,8.52067,R,ugm-3,84.36822,R,ugm-3
11-01-2015,15:00,2.07114,R,ugm-3,5.34544,R,ugm-3,8.52114,R,ugm-3,85.56564,R,ugm-3
11-01-2015,16:00,1.68760,R,ugm-3,5.63948,R,ugm-3,8.22710,R,ugm-3,86.46370,R,ugm-3
11-01-2015,17:00,1.72595,R,ugm-3,4.46330,R,ugm-3,7.10972,R,ugm-3,87.61123,R,ugm-3
11-01-2015,18:00,1.72595,R,ugm-3,4.40449,R,ugm-3,7.05091,R,ugm-3,86.86284,R,ugm-3
11-01-2015,19:00,1.64924,R,ugm-3,5.63901,R,ugm-3,8.16781,R,ugm-3,84.06886,R,ugm-3
11-01-2015,20:00,1.03557,R,ugm-3,4.52354,R,ugm-3,6.11139,R,ugm-3,87.61123,R,ugm-3
11-01-2015,21:00,1.07393,R,ugm-3,3.58307,R,ugm-3,5.22973,R,ugm-3,85.31618,R,ugm-3
11-01-2015,22:00,0.57532,R,ugm-3,1.29189,R,ugm-3,2.17403,R,ugm-3,86.46370,R,ugm-3
11-01-2015,23:00,1.68760,R,ugm-3,4.69901,R,ugm-3,7.28663,R,ugm-3,83.91919,R,ugm-3
11-01-2015,24:00,0.46025,R,ugm-3,0.76309,R,ugm-3,1.46880,R,ugm-3,85.66542,R,ugm-3
12-01-2015,01:00,0.56295,R,ugm-3,0.54825,R,ugm-3,1.41143,R,ugm-3,83.35374,R,ugm-3
12-01-2015,02:00,0.46057,R,ugm-3,0.23476,R,ugm-3,0.94095,R,ugm-3,84.36822,R,ugm-3
12-01-2015,03:00,0.46025,R,ugm-3,0.47048,R,ugm-3,1.17619,R,ugm-3,84.76736,R,ugm-3
12-01-2015,04:00,0.46057,R,ugm-3,0.47000,R,ugm-3,1.17619,R,ugm-3,82.67187,R,ugm-3
12-01-2015,05:00,0.34519,R,ugm-3,0.41167,R,ugm-3,0.94095,R,ugm-3,86.96263,R,ugm-3
12-01-2015,06:00,0.57563,R,ugm-3,0.52881,R,ugm-3,1.41143,R,ugm-3,91.55274,R,ugm-3
12-01-2015,07:00,1.26695,R,ugm-3,1.64475,R,ugm-3,3.58737,R,ugm-3,89.25768,R,ugm-3
12-01-2015,08:00,1.68884,R,ugm-3,4.11474,R,ugm-3,6.70427,R,ugm-3,87.11231,R,ugm-3
12-01-2015,09:00,2.37985,R,ugm-3,5.99569,R,ugm-3,9.64474,R,ugm-3,85.41596,R,ugm-3
12-01-2015,10:00,2.72504,R,ugm-3,4.87831,R,ugm-3,9.05664,R,ugm-3,87.26198,R,ugm-3
12-01-2015,11:00,3.41667,R,ugm-3,6.52306,R,ugm-3,11.76188,R,ugm-3,80.92564,R,ugm-3
12-01-2015,12:00,3.03219,R,ugm-3,6.52449,R,ugm-3,11.17378,R,ugm-3,80.47660,R,ugm-3
12-01-2015,13:00,2.64833,R,ugm-3,5.46640,R,ugm-3,9.52712,R,ugm-3,82.62198,R,ugm-3
12-01-2015,14:00,3.18592,R,ugm-3,8.28830,R,ugm-3,13.17330,R,ugm-3,82.07316,R,ugm-3
12-01-2015,15:00,2.68731,R,ugm-3,7.52378,R,ugm-3,11.64426,R,ugm-3,78.53080,R,ugm-3
12-01-2015,16:00,6.25677,R,ugm-3,15.04755,R,ugm-3,24.64113,R,ugm-3,69.99918,R,ugm-3
12-01-2015,17:00,3.37800,R,ugm-3,11.28710,R,ugm-3,16.46663,R,ugm-3,66.45681,R,ugm-3
12-01-2015,18:00,3.14725,R,ugm-3,9.58258,R,ugm-3,14.40830,R,ugm-3,70.24864,R,ugm-3
12-01-2015,19:00,1.76555,R,ugm-3,5.05569,R,ugm-3,7.76284,R,ugm-3,72.54370,R,ugm-3
12-01-2015,20:00,6.67898,R,ugm-3,10.75399,R,ugm-3,20.99495,R,ugm-3,74.38972,R,ugm-3
12-01-2015,21:00,1.38232,R,ugm-3,4.11427,R,ugm-3,6.23379,R,ugm-3,79.87789,R,ugm-3
12-01-2015,22:00,0.80638,R,ugm-3,2.29213,R,ugm-3,3.52856,R,ugm-3,81.07531,R,ugm-3
12-01-2015,23:00,0.95980,R,ugm-3,2.05689,R,ugm-3,3.52856,R,ugm-3,79.22929,R,ugm-3